Voltar ao catálogo

SL-8 DEB

AtivoLEO
NORAD 25563·DEBRIS·🇷🇺 Russia

Lançado Dec 10, 1990 de Plesetsk Cosmodrome

Loading…

Próximas Passagens (próximas 24 horas)

TLE

AtualizadoSource: Space-Track

Época: Sep 14, 2026, 06:48 UTC

1 25563U 90111D   26257.28386780  .00000596  00000-0  18089-3 0  9996
2 25563  74.0462 108.8423 0019632 178.5294 304.4832 14.44219083871296

Acompanhe SL-8 DEB em tempo real com AllMySat

Download on the App Store